[[{"header":{"parameterUnit":"m.s-1","parameterCategory":2,"la1":30.2991,"la2":30.254,"lo1":-89.0895,"lo2":-89.0444,"dy":0.0017,"dx":0.0017,"nx":28,"ny":28,"refTime":"2025-02-09T09:00:00:Z","depth":"0","parameterNumber":2,"parameterNumberName":"U-component_of_CURRENTS"},"data":[0,0,0,0,0,0,0,0,0,0,0,0,0,0,0,0,0,0,0,0,0,0,0,0,0,0,0,0,0,0,0,0,0,0,0,0,0,0,0,0,0,0,0,0,0,0,0,0,0,0,0,0,0,0,0,0,0,0,0.3626,0.3626,0,0.3655,0.3655,0.3655,0.3642,0.3642,0.3641,0.3641,0.3632,0.3632,0.3632,0,0,0,0,0,0,0,0,0,0,0,0,0,0.3591,0.3592,0.3626,0.3626,0.3627,0.3655,0.3655,0.3655,0.3642,0.3642,0.3641,0.3641,0.3632,0.3632,0.3632,0,0,0,0,0,0,0,0,0,0,0,0,0,0.3609,0.3592,0.3626,0.3627,0.3627,0.3655,0.3655,0.3655,0.3642,0.3642,0.3641,0.3641,0.3632,0.3632,0.3632,0.3645,0,0,0.3633,0.3633,0,0,0,0,0,0,0,0,0.3608,0.3609,0.3626,0.3627,0.3627,0.3647,0.364,0.3651,0.3643,0.3633,0.3641,0.364,0.3636,0.3636,0.3638,0.3645,0.3644,0.3633,0.3633,0.3633,0.3633,0,0,0,0,0,0,0,0.3606,0.3608,0.3634,0.3627,0.3628,0.3637,0.3638,0.3642,0.3634,0.3634,0.3634,0.3643,0.3636,0.3638,0.3638,0.3644,0.3633,0.3633,0.3633,0.3633,0.3712,0.3714,0,0,0,0,0,0,0.3609,0.3607,0.3633,0.3635,0.362,0.3638,0.3639,0.3639,0.3635,0.3635,0.3643,0.3642,0.3638,0.3638,0.3638,0.3688,0.3633,0.3633,0.3633,0.371,0.3712,0.3715,0,0,0,0,0,0,0.3608,0.361,0.3632,0.3625,0.3629,0.364,0.3639,0.364,0.3648,0.3643,0.3642,0.3652,0.3638,0.3637,0.3658,0.3686,0.3633,0.3633,0.3708,0.3711,0.3714,0.3767,0,0,0,0,0,0,0.3607,0.361,0.3607,0.3625,0.363,0.3657,0.364,0.3641,0.3656,0.3654,0.365,0.3648,0.3637,0.3658,0.3658,0.3686,0.3633,0.3705,0.3709,0.3713,0.3763,0.3771,0.3779,0,0,0,0,0,0.3605,0.3607,0.3607,0.361,0.3626,0.3658,0.3661,0.3665,0.3657,0.3668,0.367,0.3649,0.3682,0.366,0.366,0.3688,0.3703,0.3708,0.3712,0.3759,0.377,0.3779,0,0,0,0,0,0,0.3588,0.3607,0.3607,0.3612,0.3638,0.3657,0.3668,0.3672,0.3682,0.368,0.3669,0.3668,0.3702,0.3691,0.3667,0.3725,0.3692,0.3696,0.3727,0.3737,0.3745,0.3767,0.3634,0,0,0,0,0,0.3585,0.3591,0.3616,0.3623,0.3637,0.3654,0.3666,0.3674,0.3688,0.3691,0.3691,0.3699,0.3721,0.3724,0.3738,0.3762,0.3797,0.3783,0.3792,0.3798,0.3819,0.3903,0.3921,0.3729,0.3729,0.3729,0,0,0.3579,0.3592,0.3594,0.362,0.3637,0.3669,0.3659,0.3686,0.3713,0.369,0.3719,0.3727,0.3736,0.3771,0.3784,0.3762,0.3874,0.3804,0.3809,0.3827,0.391,0.3929,0.3945,0.3732,0.3732,0.3731,0,0,0.3585,0.3587,0.36,0.3627,0.3663,0.3681,0.3693,0.3721,0.3732,0.3764,0.3765,0.3797,0.3808,0.3834,0.3845,0.3908,0.3919,0.3906,0.3957,0.4038,0.4055,0.407,0.4149,0.4171,0.3904,0.3904,0.3904,0,0.3579,0.3598,0.3611,0.3642,0.3668,0.369,0.3723,0.3746,0.3777,0.3805,0.378,0.3851,0.3845,0.3918,0.3936,0.3927,0.3975,0.3913,0.405,0.4065,0.408,0.4157,0.418,0.3907,0.3907,0.3906,0.3906,0,0.3602,0.3622,0.3638,0.3681,0.3712,0.3745,0.3787,0.3817,0.3831,0.3862,0.3931,0.3938,0.3986,0.3987,0.3974,0.4079,0.4082,0.4054,0.4023,0.4102,0.4179,0.4202,0.3911,0.391,0.3909,0.3909,0,0,0.3581,0.364,0.3646,0.3678,0.3736,0.3768,0.3824,0.3891,0.3959,0.3972,0.4065,0.4083,0.4101,0.4118,0.4118,0.4174,0.4306,0.4156,0.4159,0.4233,0.4501,0.4461,0.4482,0.4303,0.4308,0.4311,0.4516,0,0.3599,0.365,0.3681,0.3746,0.3782,0.3829,0.389,0.3955,0.4016,0.4113,0.414,0.4227,0.4149,0.4197,0.4236,0.4311,0.4369,0.4253,0.4415,0.4421,0.4374,0.4508,0.4351,0.4517,0.4539,0.4543,0.4545,0,0.3612,0.365,0.3703,0.3793,0.3816,0.3861,0.3982,0.4044,0.4178,0.4236,0.4315,0.4362,0.4462,0.4384,0.4525,0.4459,0.4485,0.4517,0.4525,0.4488,0.4425,0.4441,0.4558,0.4431,0.4581,0.4578,0.4576,0,0.3592,0.3669,0.371,0.3737,0.384,0.3883,0.3946,0.4076,0.4172,0.4339,0.4446,0.4541,0.4629,0.4678,0.4714,0.4649,0.4877,0.4795,0.4782,0.4779,0.4678,0.4659,0.4688,0.4899,0.4899,0.4898,0.4898,0,0.36,0.3642,0.3703,0.3732,0.3823,0.3885,0.4018,0.4105,0.4273,0.4416,0.4509,0.4647,0.471,0.4828,0.482,0.4894,0.4962,0.4839,0.4847,0.4692,0.4672,0.4579,0.452,0.4906,0.4904,0.4903,0.4902,0,0.3595,0.3621,0.3691,0.3783,0.3816,0.3887,0.4056,0.4162,0.4317,0.4517,0.4585,0.4782,0.4938,0.4992,0.5117,0.5048,0.4985,0.5107,0.4921,0.4901,0.4726,0.4675,0.4595,0.4452,0.5145,0.5145,0.5146,0,0.3604,0.3629,0.3723,0.3768,0.3815,0.3925,0.4009,0.4167,0.4285,0.4587,0.4679,0.4913,0.5038,0.5221,0.5186,0.5221,0.5027,0.5071,0.4898,0.4743,0.4693,0.4493,0.4361,0.4797,0.4794,0.4792,0.4791,0,0.3644,0.3666,0.3723,0.3801,0.3877,0.3975,0.4094,0.4188,0.4386,0.4547,0.4755,0.4893,0.5095,0.5072,0.5135,0.5118,0.4839,0.5029,0.4923,0.4489,0.4222,0.4076,0.4637,0.4772,0.4774,0.4776,0.4777,0.4777,0.3683,0.3719,0.3769,0.3842,0.3918,0.3978,0.4019,0.4152,0.4297,0.4459,0.4663,0.4759,0.489,0.496,0.4931,0.478,0.4725,0.4609,0.4589,0.4421,0.4185,0.4712,0.4808,0.481,0.4811,0.4813,0.4814,0,0.3718,0.3739,0.3805,0.3858,0.3889,0.3941,0.4037,0.4035,0.4116,0.4279,0.4396,0.4458,0.4494,0.4554,0.4523,0.4356,0.4127,0.4234,0.3911,0.382,0.436,0.4244,0.4154,0.4154,0.4154,0.4154,0.4154,0.4155,0.374,0.3772,0.3775,0.3793,0.3815,0.3788,0.3796,0.3803,0.3861,0.3858,0.3847,0.3913,0.4154,0.429,0.4161,0.4058,0.3717,0.3577,0.3536,0.3924,0.3954,0.3984,0.3859,0.3689,0.3689,0.2817,0.2811,0.2806]},{"header":{"parameterUnit":"m.s-1","parameterCategory":2,"la1":30.2991,"la2":30.254,"lo1":-89.0895,"lo2":-89.0444,"dy":0.0017,"dx":0.0017,"nx":28,"ny":28,"refTime":"2025-02-09T09:00:00:Z","depth":"0","parameterNumber":3,"parameterNumberName":"V-component_of_CURRENTS"},"data":[0,0,0,0,0,0,0,0,0,0,0,0,0,0,0,0,0,0,0,0,0,0,0,0,0,0,0,0,0,0,0,0,0,0,0,0,0,0,0,0,0,0,0,0,0,0,0,0,0,0,0,0,0,0,0,0,0,0,0.0184,0.0183,0,0.0112,0.0111,0.011,0.0059,0.0058,0.0058,0.0058,-0.0034,-0.0036,-0.0038,0,0,0,0,0,0,0,0,0,0,0,0,0,0.0223,0.0223,0.0184,0.0183,0.0182,0.0112,0.0111,0.011,0.0059,0.0058,0.0058,0.0058,-0.0033,-0.0036,-0.0038,0,0,0,0,0,0,0,0,0,0,0,0,0,0.0183,0.0223,0.0184,0.015,0.0146,0.0113,0.0111,0.011,0.0059,0.0058,0.0058,0.0058,-0.0032,-0.0035,-0.0039,-0.0051,0,0,-0.0049,-0.005,0,0,0,0,0,0,0,0,0.0185,0.0181,0.0155,0.0152,0.0148,0.0096,0.0092,0.0055,0.0059,0.009,0.0058,0.0057,0.0009,0.0003,-0.0013,-0.0056,-0.006,-0.0049,-0.0051,-0.0052,-0.0053,0,0,0,0,0,0,0,0.0188,0.0184,0.0153,0.0155,0.015,0.012,0.0114,0.0084,0.0051,0.0087,0.0084,0.0079,0.0007,-0.0009,-0.0015,-0.0061,-0.0049,-0.0052,-0.0054,-0.0055,-0.0112,-0.0112,0,0,0,0,0,0,0.0204,0.0187,0.0156,0.0151,0.0168,0.012,0.0113,0.0111,0.0051,0.0042,0.0079,0.0077,-0.0003,-0.0011,-0.0019,-0.0013,-0.0052,-0.0055,-0.0057,-0.0113,-0.0112,-0.0111,0,0,0,0,0,0,0.0205,0.0202,0.0159,0.0169,0.0161,0.012,0.0118,0.011,0.0099,0.0046,0.0036,0.0077,-0.0004,-0.0014,-0.0034,-0.0018,-0.0057,-0.006,-0.0113,-0.0112,-0.0112,-0.0018,0,0,0,0,0,0,0.0207,0.0203,0.0208,0.017,0.0161,0.0153,0.0118,0.0109,0.0097,0.0093,0.0041,0.0031,-0.0005,-0.0029,-0.0037,-0.0023,-0.0063,-0.0114,-0.0113,-0.0112,-0.0021,-0.0014,-0.0007,0,0,0,0,0,0.0208,0.0224,0.0208,0.0204,0.0169,0.0154,0.0147,0.0115,0.0098,0.0101,0.0065,0.0033,-0.003,-0.0031,-0.0041,-0.0027,-0.0114,-0.0113,-0.0112,-0.0025,-0.0015,-0.0008,0,0,0,0,0,0,0.0244,0.0219,0.0201,0.0208,0.0187,0.0147,0.0147,0.0124,0.0097,0.0093,0.004,0.0029,0.0015,-0.0019,-0.0019,-0.0043,-0.0078,-0.0079,-0.0008,0.0,0.0007,0.0033,-0.0065,0,0,0,0,0,0.0254,0.0257,0.0227,0.0232,0.0226,0.0187,0.0176,0.0156,0.0128,0.0115,0.0078,0.0039,0.0011,-0.0003,-0.0037,-0.0046,-0.0073,-0.0046,-0.0038,-0.0032,-0.0019,-0.0046,-0.004,-0.0108,-0.0108,-0.0108,0,0,0.0268,0.0255,0.0256,0.0239,0.0219,0.0227,0.018,0.0174,0.018,0.011,0.0106,0.0062,0.0013,0.0001,-0.0008,-0.0024,-0.0026,-0.0031,-0.0025,-0.0015,-0.0044,-0.0037,-0.0031,-0.0107,-0.0107,-0.0108,0,0,0.0306,0.0288,0.0306,0.0298,0.028,0.0259,0.0263,0.0229,0.0214,0.0201,0.0154,0.0126,0.0078,0.0051,0.003,0.0055,0.001,0.004,0.0099,0.0074,0.008,0.0084,0.0068,0.007,0.0046,0.0046,0.0047,0,0.0323,0.0344,0.0309,0.0328,0.0333,0.0281,0.031,0.0286,0.025,0.0249,0.0213,0.0153,0.0104,0.01,0.0102,0.0073,0.0053,0.0075,0.0085,0.0089,0.0092,0.0073,0.0075,0.0051,0.0051,0.005,0.005,0,0.0377,0.0394,0.0407,0.0414,0.0414,0.0429,0.04,0.0392,0.0362,0.034,0.0322,0.0252,0.022,0.0195,0.0153,0.0156,0.0133,0.0097,0.0069,0.0105,0.0083,0.0083,0.0058,0.0056,0.0055,0.0054,0,0,0.0417,0.0442,0.0447,0.0476,0.0465,0.0477,0.0483,0.0485,0.0511,0.0448,0.0478,0.0396,0.0354,0.0327,0.0268,0.0238,0.0233,0.0183,0.0179,0.0178,0.0186,0.0172,0.017,0.02,0.02,0.02,0.0165,0,0.0472,0.0539,0.0529,0.0594,0.0629,0.0594,0.0612,0.0603,0.0587,0.0601,0.052,0.0523,0.0407,0.0406,0.0349,0.0279,0.0236,0.0247,0.0142,0.0139,0.0131,0.017,0.0182,0.0152,0.0165,0.0165,0.0164,0,0.0532,0.0573,0.0647,0.0702,0.0714,0.0736,0.0773,0.0789,0.078,0.0771,0.0738,0.0684,0.0637,0.0534,0.0406,0.042,0.0306,0.0232,0.0228,0.0183,0.0125,0.0114,0.015,-0.0067,0.0164,0.0164,0.0164,0,0.0595,0.066,0.0727,0.0744,0.0787,0.081,0.0832,0.0839,0.0892,0.0897,0.0949,0.0845,0.0838,0.0678,0.0502,0.0461,0.037,0.0293,0.0165,0.0163,0.0137,0.0133,-0.0038,0.0189,0.0189,0.0189,0.0189,0,0.0665,0.0723,0.0764,0.0804,0.0897,0.0892,0.0993,0.0995,0.1048,0.1159,0.105,0.1125,0.0874,0.0788,0.0581,0.0396,0.0423,0.0192,0.0158,0.017,0.0169,-0.0051,-0.0185,0.0188,0.0188,0.0188,0.0188,0,0.073,0.075,0.0843,0.0904,0.093,0.1001,0.1115,0.1198,0.1228,0.1375,0.1396,0.135,0.124,0.0984,0.0753,0.0533,0.0215,0.0255,0.0292,0.0262,-0.008,-0.0208,-0.0416,-0.0506,0.0109,0.0108,0.0108,0,0.0773,0.0823,0.0926,0.0996,0.103,0.1137,0.1221,0.1278,0.1389,0.1541,0.1631,0.1576,0.1585,0.1237,0.0824,0.0466,0.0222,0.0226,0.0128,-0.0082,-0.025,-0.035,-0.0417,0.0131,0.013,0.013,0.013,0,0.0865,0.0893,0.0972,0.1109,0.121,0.1348,0.1475,0.1589,0.1699,0.1852,0.203,0.2065,0.1733,0.1383,0.0864,0.0602,0.0074,0.0211,-0.0018,-0.0251,-0.0358,-0.0463,0.0137,0.0129,0.0129,0.0129,0.0129,0.0129,0.0935,0.1008,0.1104,0.1235,0.1364,0.1531,0.1667,0.1841,0.2059,0.2306,0.2314,0.242,0.1871,0.1174,0.0794,0.0066,0.0041,-0.0167,-0.0303,-0.0382,-0.0482,0.0124,0.0081,0.0081,0.0081,0.008,0.008,0,0.1017,0.1095,0.1226,0.1385,0.1538,0.1588,0.1822,0.1987,0.2274,0.2507,0.2678,0.2453,0.1813,0.1119,0.0136,-0.0352,-0.0538,-0.0628,-0.0783,-0.0827,-0.0293,-0.0305,-0.0418,-0.0418,-0.0418,-0.0417,-0.0417,-0.0417,0.1065,0.1188,0.1245,0.149,0.1615,0.1838,0.198,0.225,0.2455,0.2746,0.2813,0.2805,0.2225,0.0535,-0.0577,-0.0823,-0.1185,-0.1281,-0.1444,-0.1109,-0.1077,-0.1046,-0.109,-0.1365,-0.1366,-0.1903,-0.1909,-0.1914]}],[{"header":{"parameterUnit":"m.s-1","parameterCategory":2,"la1":30.2991,"la2":30.254,"lo1":-89.0895,"lo2":-89.0444,"dy":0.0017,"dx":0.0017,"nx":28,"ny":28,"refTime":"2025-02-09T09:00:00:Z","depth":"2","parameterNumber":2,"parameterNumberName":"U-component_of_CURRENTS"},"data":[0,0,0,0,0,0,0,0,0,0,0,0,0,0,0,0,0,0,0,0,0,0,0,0,0,0,0,0,0,0,0,0,0,0,0,0,0,0,0,0,0,0,0,0,0,0,0,0,0,0,0,0,0,0,0,0,0,0,0.2966,0.2967,0,0.301,0.3011,0.3011,0.3018,0.3018,0.3017,0.3017,0.3033,0.3033,0.3034,0,0,0,0,0,0,0,0,0,0,0,0,0,0.2891,0.2892,0.2966,0.2967,0.2968,0.301,0.3011,0.3011,0.3018,0.3017,0.3017,0.3017,0.3032,0.3033,0.3034,0,0,0,0,0,0,0,0,0,0,0,0,0,0.2925,0.2892,0.2966,0.2979,0.2981,0.301,0.3011,0.3011,0.3018,0.3017,0.3017,0.3017,0.3032,0.3033,0.3034,0.3041,0,0,0.3036,0.3036,0,0,0,0,0,0,0,0,0.2923,0.2927,0.2976,0.2978,0.298,0.3011,0.299,0.3021,0.3018,0.3,0.3017,0.3017,0.3025,0.3026,0.3031,0.3041,0.3042,0.3036,0.3036,0.3037,0.3037,0,0,0,0,0,0,0,0.2921,0.2926,0.298,0.2977,0.298,0.2984,0.2988,0.2996,0.301,0.3002,0.3003,0.3013,0.3026,0.303,0.3031,0.3042,0.3036,0.3037,0.3037,0.3037,0.3125,0.3127,0,0,0,0,0,0,0.2922,0.2923,0.2979,0.2982,0.2955,0.2985,0.299,0.2999,0.301,0.3013,0.3013,0.3014,0.3029,0.303,0.3032,0.3091,0.3037,0.3037,0.3038,0.3123,0.3126,0.3128,0,0,0,0,0,0,0.292,0.2927,0.2977,0.2956,0.2963,0.2987,0.2997,0.3,0.3018,0.302,0.3022,0.303,0.3029,0.3031,0.3059,0.309,0.3038,0.3038,0.3121,0.3124,0.3127,0.3177,0,0,0,0,0,0,0.2918,0.2926,0.2934,0.2956,0.2965,0.3006,0.2997,0.3001,0.3025,0.3026,0.3035,0.3035,0.3029,0.3058,0.306,0.309,0.3039,0.3119,0.3122,0.3126,0.3173,0.3181,0.3189,0,0,0,0,0,0.2915,0.2926,0.2934,0.2941,0.2975,0.3008,0.3012,0.3026,0.3026,0.304,0.3051,0.3036,0.3082,0.306,0.3062,0.3092,0.3117,0.3121,0.3125,0.317,0.318,0.3188,0,0,0,0,0,0,0.2896,0.2929,0.2937,0.2958,0.2987,0.301,0.3026,0.3036,0.3056,0.3059,0.3055,0.3057,0.3097,0.309,0.3066,0.3131,0.3099,0.3104,0.3133,0.3142,0.315,0.3163,0.304,0,0,0,0,0,0.2897,0.2916,0.2948,0.2967,0.2983,0.3007,0.3023,0.3037,0.3057,0.3066,0.3074,0.309,0.3114,0.3124,0.314,0.3169,0.3193,0.3193,0.3201,0.3207,0.3222,0.3291,0.3306,0.3142,0.3142,0.3141,0,0,0.2894,0.2917,0.2927,0.2965,0.2987,0.3018,0.3016,0.3049,0.3078,0.3065,0.3103,0.3117,0.313,0.3168,0.3185,0.3166,0.3268,0.3213,0.3218,0.3229,0.3297,0.3313,0.3327,0.3145,0.3144,0.3144,0,0,0.2902,0.2921,0.2942,0.297,0.3013,0.3032,0.3047,0.3082,0.3101,0.314,0.3146,0.3183,0.3204,0.323,0.3243,0.3304,0.331,0.3308,0.3353,0.342,0.3434,0.3447,0.3502,0.3519,0.3308,0.3308,0.3308,0,0.2898,0.2928,0.2953,0.2984,0.3011,0.3042,0.3074,0.3103,0.3143,0.317,0.3159,0.3234,0.3238,0.3305,0.3326,0.3322,0.3358,0.3312,0.343,0.3443,0.3455,0.3509,0.3527,0.3311,0.3311,0.331,0.331,0,0.2921,0.2951,0.2969,0.3018,0.305,0.3084,0.313,0.3166,0.3191,0.3222,0.3293,0.3313,0.336,0.3369,0.3363,0.3456,0.3453,0.3434,0.3404,0.3475,0.3526,0.3545,0.3315,0.3314,0.3313,0.3312,0,0,0.2896,0.297,0.2976,0.3003,0.3072,0.3096,0.3159,0.3223,0.3276,0.3315,0.3386,0.3431,0.3453,0.3472,0.3482,0.3534,0.3643,0.3522,0.3524,0.3573,0.3796,0.374,0.3754,0.3647,0.3651,0.3654,0.3799,0,0.2908,0.2961,0.3002,0.3056,0.3087,0.3143,0.3201,0.3264,0.3324,0.3401,0.3446,0.3518,0.3491,0.3529,0.3579,0.3638,0.3694,0.3606,0.3724,0.3728,0.3666,0.3774,0.3461,0.356,0.3816,0.3819,0.3822,0,0.2913,0.2951,0.3002,0.308,0.31,0.314,0.3241,0.33,0.3418,0.3476,0.3558,0.36,0.37,0.3659,0.3798,0.3747,0.378,0.3811,0.3817,0.376,0.3706,0.3531,0.3583,0.3852,0.3849,0.3847,0.3845,0,0.2869,0.2948,0.2985,0.3011,0.3106,0.3143,0.3201,0.3316,0.3391,0.3536,0.3611,0.3721,0.3801,0.3863,0.3923,0.3879,0.407,0.4011,0.3992,0.3987,0.3743,0.3711,0.4111,0.4111,0.4111,0.411,0.411,0,0.2858,0.2885,0.2965,0.2984,0.3043,0.3119,0.3211,0.3294,0.3438,0.3541,0.3645,0.3748,0.386,0.3966,0.3987,0.4064,0.4127,0.4034,0.4036,0.3751,0.3721,0.398,0.3963,0.4116,0.4115,0.4113,0.4113,0,0.2799,0.2854,0.2896,0.2989,0.3021,0.306,0.3202,0.3272,0.3425,0.3568,0.3623,0.3814,0.3962,0.4052,0.4187,0.4157,0.4222,0.4222,0.3882,0.3841,0.4074,0.4058,0.4223,0.4223,0.4223,0.4222,0.4222,0,0.2772,0.2789,0.2877,0.2907,0.2948,0.3029,0.3089,0.3245,0.3332,0.3594,0.3649,0.3861,0.3971,0.4158,0.4166,0.4221,0.4263,0.3951,0.3801,0.4108,0.4094,0.4078,0.4063,0.3497,0.3491,0.3486,0.3482,0,0.2722,0.2753,0.2792,0.2849,0.2901,0.2966,0.3064,0.3129,0.3326,0.3444,0.3618,0.3734,0.3945,0.3879,0.3979,0.3955,0.3915,0.3851,0.4286,0.3519,0.3436,0.3417,0.3424,0.3437,0.3441,0.3445,0.3447,0.3449,0.2678,0.2694,0.2745,0.2782,0.2841,0.2875,0.2875,0.2994,0.309,0.3233,0.3451,0.3524,0.3629,0.3622,0.354,0.3485,0.3743,0.3561,0.3571,0.3588,0.348,0.3401,0.3375,0.3379,0.3382,0.3385,0.3388,0,0.2628,0.2649,0.2678,0.27,0.2696,0.2778,0.283,0.2793,0.2822,0.3021,0.3137,0.2981,0.2986,0.3075,0.2929,0.2956,0.287,0.283,0.2672,0.2723,0.2767,0.2608,0.2277,0.2273,0.2269,0.2265,0,0,0.2608,0.2596,0.2595,0.2538,0.2564,0.2495,0.2489,0.2461,0.2525,0.2542,0.2584,0.2874,0.3011,0.2598,0.2565,0.2385,0.2519,0.2298,0.3203,0.307,0.3108,0.3225,0.3046,0,0,0,0,0]},{"header":{"parameterUnit":"m.s-1","parameterCategory":2,"la1":30.2991,"la2":30.254,"lo1":-89.0895,"lo2":-89.0444,"dy":0.0017,"dx":0.0017,"nx":28,"ny":28,"refTime":"2025-02-09T09:00:00:Z","depth":"2","parameterNumber":3,"parameterNumberName":"V-component_of_CURRENTS"},"data":[0,0,0,0,0,0,0,0,0,0,0,0,0,0,0,0,0,0,0,0,0,0,0,0,0,0,0,0,0,0,0,0,0,0,0,0,0,0,0,0,0,0,0,0,0,0,0,0,0,0,0,0,0,0,0,0,0,0,0.0067,0.0066,0,0.0005,0.0004,0.0003,-0.0042,-0.0042,-0.0042,-0.0042,-0.0123,-0.0125,-0.0127,0,0,0,0,0,0,0,0,0,0,0,0,0,0.0101,0.01,0.0067,0.0066,0.0066,0.0005,0.0004,0.0003,-0.0042,-0.0042,-0.0042,-0.0043,-0.0122,-0.0125,-0.0127,0,0,0,0,0,0,0,0,0,0,0,0,0,0.0066,0.01,0.0067,0.0037,0.0034,0.0005,0.0004,0.0003,-0.0042,-0.0042,-0.0042,-0.0043,-0.0122,-0.0124,-0.0127,-0.0138,0,0,-0.0136,-0.0137,0,0,0,0,0,0,0,0,0.0068,0.0064,0.0042,0.0039,0.0036,-0.001,-0.0014,-0.0045,-0.0042,-0.0015,-0.0042,-0.0043,-0.0085,-0.0091,-0.0104,-0.0142,-0.0146,-0.0136,-0.0138,-0.0139,-0.014,0,0,0,0,0,0,0,0.007,0.0066,0.0041,0.0042,0.0038,0.0011,0.0006,-0.002,-0.0049,-0.0017,-0.002,-0.0024,-0.0088,-0.0101,-0.0107,-0.0147,-0.0136,-0.0139,-0.0141,-0.0142,-0.0191,-0.019,0,0,0,0,0,0,0.0084,0.0069,0.0043,0.0039,0.0053,0.0011,0.0006,0.0004,-0.0049,-0.0056,-0.0024,-0.0026,-0.0096,-0.0103,-0.011,-0.0104,-0.0139,-0.0142,-0.0144,-0.0191,-0.0191,-0.019,0,0,0,0,0,0,0.0085,0.0082,0.0045,0.0054,0.0047,0.0012,0.001,0.0003,-0.0007,-0.0053,-0.0062,-0.0026,-0.0097,-0.0106,-0.0123,-0.0108,-0.0143,-0.0146,-0.0192,-0.0191,-0.019,-0.0106,0,0,0,0,0,0,0.0086,0.0083,0.0088,0.0055,0.0047,0.0041,0.001,0.0002,-0.0008,-0.0012,-0.0057,-0.0066,-0.0098,-0.0118,-0.0126,-0.0113,-0.0148,-0.0192,-0.0191,-0.0191,-0.011,-0.0103,-0.0097,0,0,0,0,0,0.0088,0.0102,0.0089,0.0085,0.0055,0.0042,0.0036,0.0008,-0.0008,-0.0004,-0.0036,-0.0064,-0.0119,-0.012,-0.0129,-0.0116,-0.0193,-0.0192,-0.0191,-0.0112,-0.0104,-0.0097,0,0,0,0,0,0,0.0119,0.0098,0.0082,0.0089,0.0071,0.0035,0.0036,0.0015,-0.0008,-0.0011,-0.0057,-0.0067,-0.0079,-0.0109,-0.011,-0.0129,-0.0161,-0.0162,-0.0098,-0.0091,-0.0085,-0.0065,-0.0151,0,0,0,0,0,0.0129,0.0132,0.0106,0.011,0.0105,0.0071,0.0062,0.0045,0.0019,0.0008,-0.0024,-0.0058,-0.0083,-0.0095,-0.0124,-0.0131,-0.0164,-0.0131,-0.0124,-0.0119,-0.0109,-0.0144,-0.014,-0.0187,-0.0187,-0.0187,0,0,0.0141,0.013,0.0131,0.0117,0.0099,0.0107,0.0065,0.006,0.0066,0.0004,0.0001,-0.0038,-0.0081,-0.009,-0.0098,-0.0112,-0.0123,-0.0118,-0.0112,-0.0106,-0.0143,-0.0138,-0.0134,-0.0186,-0.0186,-0.0187,0,0,0.0175,0.016,0.0177,0.017,0.0154,0.0136,0.014,0.011,0.0096,0.0086,0.0044,0.0019,-0.0021,-0.0046,-0.0064,-0.0041,-0.009,-0.0053,-0.0002,-0.0036,-0.0032,-0.0029,-0.0063,-0.0063,-0.0048,-0.0048,-0.0048,0,0.0191,0.021,0.018,0.0197,0.0202,0.0156,0.0182,0.0162,0.013,0.0127,0.0097,0.0041,0.0001,-0.0005,-0.0,-0.0025,-0.0054,-0.0024,-0.0026,-0.0024,-0.0023,-0.0058,-0.006,-0.0044,-0.0044,-0.0044,-0.0045,0,0.024,0.0256,0.0267,0.0275,0.0275,0.0288,0.0264,0.0257,0.023,0.0209,0.019,0.0129,0.0099,0.0078,0.0045,0.0041,0.0014,-0.0015,-0.0041,-0.0012,-0.0052,-0.0055,-0.0038,-0.0039,-0.004,-0.0041,0,0,0.0275,0.0298,0.0303,0.0327,0.0321,0.033,0.0339,0.0339,0.0357,0.0302,0.0316,0.0254,0.0215,0.0191,0.0141,0.0106,0.0086,0.0057,0.0053,0.0032,0.0012,-0.0017,-0.0025,0.0057,0.0057,0.0057,-0.0019,0,0.0323,0.0382,0.0376,0.0432,0.0463,0.0434,0.045,0.0441,0.0423,0.0422,0.0349,0.0338,0.0261,0.0249,0.0202,0.0122,0.0081,0.0109,-0.002,-0.0024,-0.0047,-0.0028,0.0003,-0.0063,-0.0023,-0.0024,-0.0024,0,0.0375,0.0412,0.0477,0.0522,0.0532,0.0553,0.0581,0.0593,0.0574,0.056,0.0526,0.0466,0.0412,0.0337,0.0209,0.0232,0.0131,0.0055,0.005,-0.0008,-0.0059,-0.0087,-0.0072,-0.0031,-0.003,-0.003,-0.0029,0,0.0425,0.0483,0.0543,0.0558,0.0594,0.0615,0.0633,0.0634,0.0673,0.0652,0.067,0.058,0.0553,0.0413,0.0248,0.0231,0.0101,0.0056,-0.0069,-0.0073,-0.0086,-0.0091,-0.0041,-0.004,-0.004,-0.004,-0.004,0,0.0484,0.0531,0.0572,0.0605,0.0682,0.068,0.0759,0.0758,0.0788,0.0858,0.0749,0.0772,0.0571,0.0467,0.0293,0.0111,0.0132,-0.0054,-0.0091,-0.0057,-0.0058,-0.0064,-0.0065,-0.0043,-0.0042,-0.0042,-0.0041,0,0.053,0.0553,0.063,0.0684,0.0708,0.0764,0.0856,0.0919,0.0923,0.101,0.1009,0.0929,0.0794,0.0575,0.036,0.0191,0.0002,-0.0074,-0.0021,-0.0051,-0.0162,-0.0159,-0.0217,-0.0218,-0.022,-0.0221,-0.0222,0,0.0559,0.0602,0.0694,0.0754,0.0783,0.0871,0.0941,0.0983,0.1069,0.1117,0.1169,0.106,0.101,0.067,0.0351,0.0042,-0.0001,-0.0137,-0.0173,-0.0148,-0.0179,-0.0173,-0.0168,-0.016,-0.0161,-0.0161,-0.0161,0,0.0619,0.0647,0.0715,0.0838,0.0924,0.1041,0.1146,0.1237,0.1305,0.1363,0.1425,0.1381,0.1064,0.0757,0.0323,0.0117,-0.0089,-0.0154,-0.0134,-0.012,-0.0101,-0.0129,-0.0125,-0.0164,-0.0164,-0.0164,-0.0163,-0.0163,0.0664,0.0726,0.0817,0.0936,0.1045,0.1195,0.1307,0.1428,0.1563,0.1669,0.1621,0.1563,0.1202,0.0655,0.0275,-0.0119,-0.0103,-0.0241,-0.0237,-0.0234,-0.0212,-0.0197,-0.0274,-0.0275,-0.0275,-0.0275,-0.0275,0,0.0728,0.0801,0.0912,0.1059,0.1192,0.1242,0.1436,0.1546,0.1713,0.1797,0.1835,0.1498,0.1137,0.0721,0.013,-0.0224,-0.0242,-0.0326,-0.0275,-0.0269,-0.0265,-0.0244,-0.0316,-0.0317,-0.0318,-0.0319,0,0,0.0765,0.0879,0.0936,0.1154,0.1268,0.1453,0.1574,0.1721,0.1819,0.1899,0.1873,0.1796,0.1273,0.0841,0.0355,0.0015,-0.0039,-0.0043,0.0029,0.0153,0.0162,-0.0177,-0.0133,0,0,0,0,0]}],[{"header":{"parameterUnit":"m.s-1","parameterCategory":2,"la1":30.2991,"la2":30.254,"lo1":-89.0895,"lo2":-89.0444,"dy":0.0017,"dx":0.0017,"nx":28,"ny":28,"refTime":"2025-02-09T09:00:00:Z","depth":"4","parameterNumber":2,"parameterNumberName":"U-component_of_CURRENTS"},"data":[0,0,0,0,0,0,0,0,0,0,0,0,0,0,0,0,0,0,0,0,0,0,0,0,0,0,0,0,0,0,0,0,0,0,0,0,0,0,0,0,0,0,0,0,0,0,0,0,0,0,0,0,0,0,0,0,0,0,0.195,0.1951,0,0.2034,0.2035,0.2035,0.2104,0.2105,0.2106,0.2107,0.2201,0.2202,0.2204,0,0,0,0,0,0,0,0,0,0,0,0,0,0.1833,0.1835,0.195,0.1951,0.1953,0.2034,0.2035,0.2036,0.2104,0.2105,0.2106,0.2107,0.22,0.2202,0.2204,0,0,0,0,0,0,0,0,0,0,0,0,0,0.1895,0.1836,0.195,0.1998,0.2004,0.2034,0.2035,0.2036,0.2103,0.2105,0.2106,0.2108,0.2199,0.2202,0.2204,0.2191,0,0,0.2212,0.2213,0,0,0,0,0,0,0,0,0.1891,0.1899,0.199,0.1995,0.2001,0.2062,0.2028,0.2089,0.2103,0.2063,0.2107,0.2108,0.2156,0.2162,0.2171,0.2195,0.2199,0.2212,0.2213,0.2214,0.2215,0,0,0,0,0,0,0,0.1887,0.1896,0.1981,0.1991,0.1998,0.2011,0.2021,0.204,0.2099,0.2066,0.2072,0.2085,0.2159,0.2168,0.2174,0.2201,0.2212,0.2214,0.2215,0.2216,0.2354,0.2356,0,0,0,0,0,0,0.1881,0.1892,0.1978,0.1984,0.1951,0.2012,0.2023,0.2039,0.2098,0.211,0.2084,0.2088,0.2163,0.2171,0.2177,0.2282,0.2214,0.2217,0.2218,0.2351,0.2354,0.2356,0,0,0,0,0,0,0.1878,0.1888,0.1975,0.1941,0.1954,0.2013,0.203,0.204,0.2094,0.2112,0.2123,0.2133,0.2165,0.2174,0.2237,0.2281,0.2218,0.222,0.2349,0.2352,0.2355,0.2416,0,0,0,0,0,0,0.1875,0.1887,0.1915,0.1941,0.1955,0.202,0.2029,0.2041,0.2098,0.2105,0.2156,0.2164,0.2167,0.2233,0.2239,0.2284,0.2222,0.2346,0.235,0.2354,0.2411,0.2421,0.2429,0,0,0,0,0,0.187,0.1895,0.1915,0.1927,0.1986,0.2022,0.2031,0.2075,0.2099,0.2128,0.2169,0.2165,0.2264,0.2237,0.2243,0.229,0.2344,0.2349,0.2354,0.2407,0.2419,0.2429,0,0,0,0,0,0,0.1861,0.1906,0.1928,0.1968,0.2007,0.2035,0.2072,0.2097,0.2151,0.2173,0.2188,0.2199,0.2272,0.2273,0.2243,0.2343,0.2305,0.2312,0.2343,0.2355,0.2363,0.2366,0.2224,0,0,0,0,0,0.1871,0.1906,0.1944,0.1982,0.2004,0.2046,0.2075,0.2105,0.2146,0.2173,0.2209,0.225,0.2288,0.2317,0.2346,0.2397,0.2407,0.2433,0.2442,0.245,0.2458,0.2515,0.253,0.2373,0.2373,0.2372,0,0,0.1878,0.191,0.1932,0.1984,0.202,0.2056,0.2068,0.2124,0.2166,0.2173,0.2254,0.2285,0.231,0.2371,0.2404,0.2384,0.2502,0.2456,0.2462,0.2466,0.2522,0.2537,0.2551,0.2376,0.2375,0.2375,0,0,0.1896,0.1942,0.1973,0.2009,0.207,0.2093,0.2119,0.2172,0.2216,0.2282,0.2305,0.2365,0.2421,0.245,0.2469,0.2545,0.2548,0.2563,0.2611,0.2667,0.268,0.2692,0.2728,0.2742,0.2567,0.2567,0.2567,0,0.1908,0.195,0.1989,0.2027,0.2063,0.2114,0.2154,0.2198,0.227,0.2308,0.2322,0.2433,0.2456,0.253,0.2562,0.2566,0.2593,0.2564,0.2678,0.269,0.2701,0.2735,0.275,0.2571,0.257,0.257,0.2569,0,0.1935,0.1986,0.201,0.2074,0.2117,0.2163,0.2221,0.2281,0.2338,0.2378,0.2479,0.252,0.2585,0.2607,0.2609,0.2704,0.2698,0.2682,0.2647,0.272,0.2751,0.2766,0.2576,0.2574,0.2573,0.2572,0,0,0.1912,0.201,0.2023,0.2061,0.2149,0.2179,0.2263,0.2338,0.2402,0.248,0.2562,0.2639,0.2675,0.2699,0.2723,0.2774,0.2874,0.277,0.2771,0.2798,0.2999,0.2811,0.2809,0.2886,0.2889,0.2891,0.299,0,0.1926,0.1995,0.2046,0.2121,0.2158,0.2235,0.2303,0.2384,0.2463,0.2554,0.2621,0.2711,0.2706,0.2761,0.2812,0.2867,0.2917,0.2849,0.293,0.2933,0.275,0.282,0.2901,0.3001,0.3004,0.3006,0.3008,0,0.1925,0.1975,0.2047,0.2145,0.2172,0.2229,0.235,0.2419,0.2549,0.2621,0.272,0.2778,0.2886,0.2867,0.2993,0.2957,0.2988,0.3016,0.302,0.2831,0.2771,0.2913,0.3034,0.3032,0.303,0.3028,0.3027,0,0.1867,0.1971,0.203,0.2065,0.2183,0.2243,0.2315,0.2443,0.2517,0.2679,0.2755,0.2875,0.2962,0.3026,0.3089,0.3062,0.3211,0.3172,0.3028,0.3015,0.3128,0.3114,0.3256,0.3256,0.3255,0.3255,0.3255,0,0.1836,0.1885,0.2015,0.2043,0.2122,0.2221,0.2322,0.242,0.2568,0.2652,0.279,0.2872,0.3013,0.3103,0.3132,0.3123,0.3249,0.3047,0.3031,0.3151,0.3139,0.3138,0.3123,0.3259,0.3258,0.3257,0.3257,0,0.1752,0.1841,0.191,0.2046,0.2095,0.2152,0.2313,0.2379,0.2545,0.2664,0.2726,0.2912,0.3025,0.3127,0.3246,0.3163,0.3185,0.315,0.3284,0.3273,0.294,0.2927,0.2986,0.298,0.2975,0.2971,0.2968,0,0.1709,0.1741,0.1889,0.1932,0.2,0.2105,0.2173,0.235,0.2422,0.2655,0.2693,0.2877,0.2973,0.2991,0.3111,0.3153,0.3118,0.3103,0.2999,0.2935,0.2915,0.291,0.2904,0.296,0.2959,0.2957,0.2956,0,0.1621,0.1693,0.1749,0.1841,0.1921,0.1988,0.2104,0.2144,0.2338,0.2515,0.2603,0.2673,0.2792,0.2874,0.2937,0.2957,0.3094,0.3051,0.3059,0.2961,0.2904,0.2888,0.2888,0.2939,0.2942,0.2943,0.2944,0,0.1557,0.1569,0.1659,0.1723,0.1812,0.1836,0.1916,0.2003,0.2098,0.2356,0.2382,0.2577,0.2759,0.2775,0.2831,0.284,0.2788,0.2686,0.2712,0.2732,0.2603,0.249,0.2393,0,0,0,0,0,0.148,0.148,0.1533,0.158,0.1659,0.1715,0.1851,0.1938,0.2131,0.2133,0.2251,0.235,0.2441,0.2551,0.2509,0.2715,0.2795,0.2654,0.2688,0.2846,0.2865,0.2736,0,0,0,0,0,0,0.1425,0.1466,0.1483,0.1449,0.1458,0.152,0.1602,0.1735,0.1751,0.1966,0.2034,0.2201,0.2331,0.2438,0.2461,0.2493,0.2464,0.2785,0.2778,0.2835,0.2852,0.2868,0.2742,0,0,0,0,0]},{"header":{"parameterUnit":"m.s-1","parameterCategory":2,"la1":30.2991,"la2":30.254,"lo1":-89.0895,"lo2":-89.0444,"dy":0.0017,"dx":0.0017,"nx":28,"ny":28,"refTime":"2025-02-09T09:00:00:Z","depth":"4","parameterNumber":3,"parameterNumberName":"V-component_of_CURRENTS"},"data":[0,0,0,0,0,0,0,0,0,0,0,0,0,0,0,0,0,0,0,0,0,0,0,0,0,0,0,0,0,0,0,0,0,0,0,0,0,0,0,0,0,0,0,0,0,0,0,0,0,0,0,0,0,0,0,0,0,0,0.005,0.0049,0,0.0007,0.0006,0.0006,-0.0027,-0.0028,-0.0028,-0.0028,-0.0091,-0.0093,-0.0094,0,0,0,0,0,0,0,0,0,0,0,0,0,0.0072,0.0072,0.005,0.0049,0.0049,0.0007,0.0006,0.0005,-0.0027,-0.0028,-0.0028,-0.0028,-0.0091,-0.0092,-0.0094,0,0,0,0,0,0,0,0,0,0,0,0,0,0.0048,0.0072,0.005,0.0028,0.0026,0.0007,0.0006,0.0005,-0.0027,-0.0028,-0.0028,-0.0028,-0.009,-0.0092,-0.0094,-0.0102,0,0,-0.0101,-0.0102,0,0,0,0,0,0,0,0,0.005,0.0047,0.0032,0.003,0.0027,-0.0004,-0.0009,-0.0031,-0.0027,-0.0008,-0.0028,-0.0028,-0.0063,-0.0067,-0.0076,-0.0105,-0.0108,-0.0101,-0.0103,-0.0104,-0.0104,0,0,0,0,0,0,0,0.0051,0.0049,0.0031,0.0031,0.0029,0.001,0.0007,-0.0014,-0.0035,-0.001,-0.0012,-0.0015,-0.0065,-0.0074,-0.0078,-0.0109,-0.0101,-0.0103,-0.0105,-0.0106,-0.0145,-0.0144,0,0,0,0,0,0,0.0061,0.005,0.0033,0.003,0.0039,0.001,0.0006,0.0005,-0.0034,-0.004,-0.0015,-0.0016,-0.007,-0.0075,-0.008,-0.0075,-0.0104,-0.0106,-0.0107,-0.0145,-0.0145,-0.0144,0,0,0,0,0,0,0.0062,0.006,0.0034,0.004,0.0036,0.0011,0.0009,0.0004,-0.0002,-0.0037,-0.0044,-0.0016,-0.007,-0.0077,-0.0091,-0.0079,-0.0107,-0.0109,-0.0145,-0.0145,-0.0145,-0.0076,0,0,0,0,0,0,0.0063,0.006,0.0065,0.0041,0.0036,0.0032,0.001,0.0004,-0.0003,-0.0006,-0.004,-0.0047,-0.0071,-0.0087,-0.0093,-0.0082,-0.0111,-0.0146,-0.0145,-0.0145,-0.0079,-0.0073,-0.0069,0,0,0,0,0,0.0064,0.0074,0.0065,0.0063,0.0042,0.0033,0.0029,0.0008,-0.0003,-0.0,-0.0023,-0.0046,-0.0088,-0.0089,-0.0096,-0.0085,-0.0146,-0.0145,-0.0145,-0.0081,-0.0074,-0.0069,0,0,0,0,0,0,0.0086,0.0071,0.0061,0.0066,0.0054,0.0028,0.0029,0.0014,-0.0003,-0.0005,-0.004,-0.0048,-0.0057,-0.0081,-0.0081,-0.0096,-0.0121,-0.0122,-0.0071,-0.0065,-0.006,-0.0045,-0.0113,0,0,0,0,0,0.0094,0.0097,0.0078,0.0082,0.0079,0.0055,0.0049,0.0036,0.0017,0.0009,-0.0016,-0.0041,-0.006,-0.0069,-0.0092,-0.0098,-0.0129,-0.0097,-0.0092,-0.0087,-0.008,-0.0116,-0.0114,-0.0142,-0.0142,-0.0142,0,0,0.0103,0.0096,0.0097,0.0088,0.0075,0.0082,0.005,0.0047,0.0053,0.0005,0.0005,-0.0025,-0.0059,-0.0065,-0.0071,-0.0082,-0.0097,-0.0087,-0.0082,-0.0078,-0.0115,-0.0112,-0.011,-0.0142,-0.0142,-0.0142,0,0,0.0129,0.0118,0.0132,0.0128,0.0117,0.0104,0.0107,0.0086,0.0076,0.007,0.0038,0.0018,-0.0012,-0.0031,-0.0045,-0.0027,-0.007,-0.0036,0.0004,-0.003,-0.0028,-0.0026,-0.0064,-0.0066,-0.0032,-0.0031,-0.0031,0,0.0141,0.0156,0.0134,0.0148,0.0154,0.012,0.014,0.0126,0.0103,0.0102,0.0079,0.0036,0.0005,-0.0,0.0005,-0.0014,-0.0043,-0.0013,-0.0023,-0.0022,-0.0021,-0.006,-0.0063,-0.0028,-0.0028,-0.0029,-0.0029,0,0.0177,0.0191,0.02,0.0208,0.021,0.0221,0.0205,0.0201,0.0182,0.0166,0.0151,0.0104,0.0081,0.0065,0.0041,0.0034,0.0008,-0.0013,-0.0034,-0.0014,-0.0057,-0.0061,-0.0023,-0.0024,-0.0025,-0.0026,0,0,0.02,0.0223,0.0226,0.0247,0.0246,0.0254,0.0264,0.0266,0.028,0.0239,0.0247,0.0202,0.0172,0.0153,0.0114,0.0082,0.0056,0.0042,0.0039,0.0012,-0.0024,-0.0041,-0.0048,0.0033,0.0032,0.0032,-0.0055,0,0.0236,0.0283,0.0282,0.0328,0.0352,0.0335,0.0349,0.0345,0.0332,0.0329,0.0272,0.0263,0.0208,0.0199,0.0157,0.0084,0.0047,0.0081,-0.0045,-0.0049,-0.0061,-0.0053,0.0031,-0.0059,-0.006,-0.0061,-0.0061,0,0.0273,0.0302,0.0356,0.0396,0.0405,0.0426,0.0451,0.0462,0.0446,0.0435,0.0408,0.0361,0.0312,0.0259,0.014,0.0164,0.008,0.0013,0.0008,-0.0034,-0.0074,-0.0085,-0.0071,-0.007,-0.0069,-0.0068,-0.0068,0,0.0304,0.0355,0.0403,0.0417,0.0452,0.0474,0.0492,0.0495,0.0524,0.0507,0.0517,0.0442,0.0411,0.0296,0.0154,0.0149,0.0013,-0.0013,-0.0112,-0.0114,-0.0103,-0.0104,-0.0099,-0.0099,-0.0098,-0.0098,-0.0098,0,0.0342,0.0382,0.0425,0.0452,0.0517,0.0522,0.0587,0.0589,0.0612,0.0652,0.0578,0.0578,0.0419,0.0319,0.0181,0.0022,0.003,-0.0102,-0.0135,-0.0073,-0.007,-0.0107,-0.0107,-0.0101,-0.0101,-0.01,-0.0099,0,0.0366,0.0393,0.0456,0.051,0.0534,0.0581,0.0662,0.071,0.0715,0.0763,0.0762,0.0685,0.0551,0.0378,0.0188,0.0067,-0.0091,-0.0152,-0.007,-0.0097,-0.0203,-0.0198,-0.0265,-0.0266,-0.0267,-0.0268,-0.0269,0,0.0381,0.0416,0.0502,0.0552,0.0582,0.0659,0.0718,0.0759,0.0816,0.0826,0.0849,0.0742,0.0661,0.039,0.0193,-0.0074,-0.0118,-0.0202,-0.0207,-0.0193,-0.0219,-0.0213,-0.0207,-0.027,-0.0271,-0.0271,-0.0271,0,0.0411,0.0442,0.0498,0.0603,0.0678,0.0772,0.0856,0.0906,0.0949,0.0954,0.0928,0.0782,0.0627,0.0401,0.0191,-0.0004,-0.0148,-0.0215,-0.0214,-0.0219,-0.0201,-0.0224,-0.0217,-0.0275,-0.0274,-0.0274,-0.0274,0,0.0435,0.0479,0.0556,0.0652,0.0751,0.0852,0.0897,0.096,0.101,0.1013,0.0999,0.0824,0.0726,0.0437,0.0244,0.0049,-0.0007,-0.0074,-0.0082,-0.008,-0.001,0.0041,0.0019,0,0,0,0,0,0.0457,0.0513,0.0602,0.0707,0.0808,0.0873,0.0977,0.1015,0.1051,0.1047,0.1029,0.0882,0.0596,0.0475,0.0279,0.0203,-0.0054,-0.0037,-0.0138,-0.0296,-0.0291,-0.0242,0,0,0,0,0,0,0.0472,0.0554,0.0602,0.0737,0.0817,0.0937,0.1009,0.1038,0.1039,0.1038,0.0897,0.0821,0.0549,0.0709,0.0272,0.0212,0.0118,-0.0169,-0.0174,-0.0298,-0.0294,-0.0291,-0.0239,0,0,0,0,0]}]]